Flag for Denmark Weather past 2 weeks in Aarhus, Denmark

Now
32 °F

Chilly.


Feels Like: 32 °F
Forecast: 35 / 52 °F
Wind: 1 mph from Southwest

Location: Tirstrup

Current Time: Apr 27, 2015 at 6:07:27 AM

Latest Report: Apr 27, 2015 at 5:20 AM


Visibility: N/A

Pressure: 29.71 "Hg

Humidity: 80%

Dew point: 27 °F

Location of AarhusLocation

Historic Weather in Aarhus — Graph

°F

Aarhus temperature yesterday

Maximum temperature yesterday: 52 °F (at 3:20 PM)
Minimum temperature yesterday: 41 °F (at 11:20 PM)
Average temperature yesterday: 47 °F

Past Weeks' High & Low Weather Summary

 TemperatureHumidityPressure
High68 °F (Apr 20, 5:20 PM)93% (Apr 13, 2:20 AM)30.39 "Hg (Apr 13, 2:20 AM)
Low30 °F (Apr 18, 6:50 AM)13% (Apr 20, 3:50 PM)29.59 "Hg (Apr 25, 3:20 PM)
Average48 °F66%30.02 "Hg
* Reported Apr 12 4:20 AM — Apr 27 4:50 AM, Aarhus, Weather by CustomWeather, © 2015

Note: Actual official high and low records may vary slightly from our data, if they occured in-between our weather recording intervals... More about our weather records

Advertising

Aarhus weather history for previous 24 hours

 ConditionsComfort  
Time TempWeatherWind HumidityBarometerVisibility
4:50 AM
Mon, Apr 27
32 °FChilly.No wind80%29.71 "HgN/A
4:20 AM32 °FChilly.1 mph87%29.71 "HgN/A
3:50 AM34 °FChilly.1 mph81%29.71 "Hg6 mi
3:20 AM34 °FChilly.1 mph87%29.71 "HgN/A
2:50 AM36 °FChilly.2 mph81%29.71 "HgN/A
2:20 AM36 °FChilly.5 mph81%29.74 "HgN/A
1:50 AM36 °FPassing clouds.5 mph87%29.71 "HgN/A
1:20 AM36 °FPassing clouds.2 mph87%29.74 "HgN/A
12:50 AM37 °FPassing clouds.2 mph81%29.71 "HgN/A
12:20 AM39 °FPassing clouds.2 mph81%29.74 "HgN/A
11:50 PM
Sun, Apr 26
41 °FPassing clouds.1 mph81%29.74 "HgN/A
11:20 PM41 °FPassing clouds.1 mph81%29.71 "HgN/A
10:50 PM43 °FPassing clouds.2 mph81%29.71 "HgN/A
10:20 PM43 °FPassing clouds.3 mph81%29.71 "HgN/A
9:50 PM43 °FPassing clouds.2 mph81%29.71 "HgN/A
9:20 PM43 °FScattered clouds.3 mph76%29.71 "HgN/A
8:50 PM45 °FPassing clouds.5 mph71%29.71 "HgN/A
8:20 PM45 °FPartly sunny.3 mph71%29.71 "HgN/A
7:50 PM46 °FPassing clouds.5 mph66%29.71 "HgN/A
7:20 PM46 °FBroken clouds.6 mph66%29.71 "HgN/A
6:50 PM46 °FPassing clouds.5 mph66%29.71 "HgN/A
6:20 PM48 °FPassing clouds.6 mph58%29.71 "HgN/A
5:50 PM48 °FPartly sunny.8 mph58%29.71 "HgN/A
5:20 PM50 °FBroken clouds.8 mph54%29.71 "HgN/A
4:50 PM50 °FBroken clouds.8 mph50%29.71 "HgN/A
4:20 PM50 °FBroken clouds.6 mph50%29.71 "HgN/A
3:50 PM52 °FBroken clouds.5 mph44%29.71 "HgN/A
3:20 PM52 °FPartly sunny.6 mph41%29.71 "HgN/A
2:50 PM50 °FBroken clouds.5 mph54%29.71 "HgN/A
2:20 PM50 °FPartly sunny.3 mph50%29.71 "HgN/A
1:50 PM50 °FBroken clouds.3 mph50%29.71 "HgN/A
1:20 PM50 °FPartly sunny.5 mph54%29.71 "HgN/A
12:50 PM50 °FBroken clouds.5 mph54%29.71 "HgN/A
12:20 PM50 °FPartly sunny.5 mph54%29.71 "HgN/A
11:50 AM50 °FPartly sunny.6 mph50%29.71 "HgN/A
11:20 AM48 °FPartly sunny.8 mph58%29.71 "HgN/A
10:50 AM48 °FPartly sunny.7 mph58%29.71 "HgN/A
10:20 AM48 °FBroken clouds.8 mph58%29.71 "HgN/A
9:50 AM48 °FPartly sunny.7 mph62%29.71 "HgN/A
9:20 AM46 °FPartly sunny.7 mph66%29.71 "HgN/A
8:50 AM46 °FPartly sunny.6 mph71%29.71 "HgN/A
8:20 AM45 °FPartly sunny.6 mph76%29.71 "HgN/A
7:50 AM45 °FBroken clouds.6 mph76%29.68 "HgN/A
7:20 AM45 °FPartly sunny.3 mph76%29.68 "HgN/A
6:50 AM43 °FOvercast.5 mph81%29.68 "HgN/A
6:20 AM43 °FSprinkles. Overcast.2 mph87%29.68 "HgN/A
Weather by CustomWeather, © 2015

See weather overviewHow to use our weather pages